THY816 LTFM-OJAI

Flight info

Callsign THY816
Flight time 1h 40m
Altitude 35000
Route RATVU UT35 AYT UA16 TOMBI DCT IDAKU L35 PIKOG L609 VOLFO N134 RALNA
Aircraft B738/M-SDE2E3FGHIRWXY/LB1

Departure

Time 2026-05-09 00:49
Airport İstanbul Airport (LTFM)

Arrival

Time 2026-05-09 02:29
Airport Queen Alia International Airport (OJAI)
Time Latitude Longitude Altitude Speed Heading
2026-05-09 00:34 41.26336 28.73569 333 ft 0 kts 70°
2026-05-09 00:42 41.26333 28.73555 328 ft 4 kts 71°
2026-05-09 00:42 41.26324 28.73523 329 ft 2 kts 71°
2026-05-09 00:42 41.26321 28.73493 333 ft 4 kts 115°
2026-05-09 00:42 41.26338 28.73473 333 ft 4 kts 161°
2026-05-09 00:43 41.26348 28.73468 333 ft 1 kts 162°
2026-05-09 00:43 41.26349 28.73468 333 ft 0 kts 162°
2026-05-09 00:45 41.26347 28.73468 333 ft 1 kts 162°
2026-05-09 00:46 41.26318 28.73482 330 ft 8 kts 161°
2026-05-09 00:46 41.26248 28.73494 330 ft 11 kts 200°
2026-05-09 00:46 41.26221 28.73407 331 ft 11 kts 269°
2026-05-09 00:46 41.26220 28.73300 329 ft 12 kts 269°
2026-05-09 00:47 41.26218 28.73188 331 ft 12 kts 269°
2026-05-09 00:47 41.26217 28.73079 331 ft 12 kts 269°
2026-05-09 00:47 41.26215 28.72973 333 ft 11 kts 269°
2026-05-09 00:47 41.26214 28.72870 333 ft 11 kts 269°
2026-05-09 00:48 41.26222 28.72782 333 ft 8 kts 314°
2026-05-09 00:48 41.26243 28.72776 333 ft 1 kts 359°
2026-05-09 00:48 41.26400 28.72773 333 ft 57 kts 359°
2026-05-09 00:48 41.27021 28.72758 333 ft 122 kts 359°
2026-05-09 00:49 41.28050 28.72733 438 ft 165 kts 360°
2026-05-09 00:49 41.29213 28.72694 1141 ft 170 kts 359°
2026-05-09 00:49 41.30479 28.72658 1614 ft 191 kts 357°
2026-05-09 00:49 41.31863 28.72616 2087 ft 212 kts 358°
2026-05-09 00:50 41.33432 28.72596 2337 ft 238 kts 358°
2026-05-09 00:50 41.35158 28.72564 2673 ft 257 kts 354°
2026-05-09 00:50 41.36878 28.71797 3041 ft 268 kts 319°
2026-05-09 00:50 41.37948 28.69869 3888 ft 257 kts 284°
2026-05-09 00:51 41.38245 28.67558 4823 ft 252 kts 270°
2026-05-09 00:51 41.38235 28.65220 5652 ft 254 kts 266°
2026-05-09 00:51 41.38176 28.62865 6526 ft 255 kts 266°
2026-05-09 00:51 41.38123 28.60496 7305 ft 257 kts 265°
2026-05-09 00:52 41.37716 28.58178 7975 ft 262 kts 241°
2026-05-09 00:52 41.36552 28.56328 8723 ft 264 kts 218°
2026-05-09 00:52 41.34892 28.55236 9449 ft 272 kts 195°
2026-05-09 00:52 41.32990 28.55039 10184 ft 277 kts 182°
2026-05-09 00:53 41.30998 28.55101 10493 ft 298 kts 180°
2026-05-09 00:53 41.28842 28.55175 10655 ft 321 kts 181°
2026-05-09 00:53 41.26543 28.55302 10960 ft 339 kts 174°
2026-05-09 00:53 41.24315 28.56318 11553 ft 350 kts 153°
2026-05-09 00:54 41.22400 28.58356 12317 ft 355 kts 139°
2026-05-09 00:54 41.20625 28.60672 12996 ft 360 kts 138°
2026-05-09 00:54 41.18835 28.63035 13646 ft 365 kts 138°
2026-05-09 00:54 41.17016 28.65410 14276 ft 368 kts 139°
2026-05-09 00:55 41.15165 28.67793 14892 ft 371 kts 139°
2026-05-09 00:55 41.13309 28.70164 15525 ft 374 kts 139°
2026-05-09 00:55 41.11587 28.72778 16095 ft 381 kts 127°
2026-05-09 00:55 41.10160 28.75754 16694 ft 386 kts 124°
2026-05-09 00:56 41.08746 28.78828 17289 ft 390 kts 124°
2026-05-09 00:56 41.07301 28.81874 17858 ft 394 kts 125°
2026-05-09 00:56 41.05816 28.84930 18419 ft 397 kts 126°
2026-05-09 00:56 41.04277 28.87989 18913 ft 399 kts 130°
2026-05-09 00:57 41.02291 28.90432 19377 ft 395 kts 152°
2026-05-09 00:57 40.99781 28.91825 19908 ft 391 kts 168°
2026-05-09 00:57 40.97089 28.92204 20384 ft 390 kts 185°
2026-05-09 00:57 40.94378 28.91862 20871 ft 392 kts 188°
2026-05-09 00:58 40.91654 28.91451 21309 ft 396 kts 188°
2026-05-09 00:58 40.88896 28.91066 21758 ft 399 kts 187°
2026-05-09 00:58 40.86187 28.90816 22200 ft 403 kts 182°
2026-05-09 00:58 40.83363 28.90947 22659 ft 407 kts 178°
2026-05-09 00:59 40.81486 28.91134 22946 ft 409 kts 177°
2026-05-09 00:59 40.78631 28.91454 23316 ft 414 kts 177°
2026-05-09 00:59 40.74802 28.91858 23809 ft 418 kts 178°
2026-05-09 00:59 40.71887 28.92131 24192 ft 419 kts 178°
2026-05-09 01:00 40.69912 28.92301 24431 ft 421 kts 178°
2026-05-09 01:00 40.67012 28.92537 24762 ft 424 kts 179°
2026-05-09 01:00 40.64053 28.92772 25114 ft 425 kts 179°
2026-05-09 01:00 40.61092 28.93008 25429 ft 428 kts 179°
2026-05-09 01:01 40.58100 28.93246 25757 ft 431 kts 179°
2026-05-09 01:01 40.55122 28.93853 26018 ft 439 kts 163°
2026-05-09 01:01 40.52374 28.95657 26311 ft 445 kts 149°
2026-05-09 01:01 40.49820 28.97862 26673 ft 445 kts 149°
2026-05-09 01:02 40.47250 29.00123 27010 ft 445 kts 149°
2026-05-09 01:02 40.44658 29.02397 27219 ft 449 kts 149°
2026-05-09 01:02 40.42043 29.04669 27432 ft 451 kts 149°
2026-05-09 01:02 40.39412 29.06933 27669 ft 452 kts 149°
2026-05-09 01:03 40.36761 29.09194 27840 ft 456 kts 150°
2026-05-09 01:03 40.34102 29.11449 27907 ft 462 kts 150°
2026-05-09 01:03 40.31398 29.13739 28156 ft 463 kts 150°
2026-05-09 01:03 40.28694 29.16030 28447 ft 463 kts 150°
2026-05-09 01:04 40.25984 29.18325 28685 ft 465 kts 150°
2026-05-09 01:04 40.23258 29.20633 28886 ft 467 kts 150°
2026-05-09 01:04 40.20530 29.22938 29079 ft 469 kts 150°
2026-05-09 01:04 40.17740 29.25151 29272 ft 468 kts 158°
2026-05-09 01:05 40.14743 29.26719 29766 ft 459 kts 164°
2026-05-09 01:05 40.11721 29.28069 29978 ft 460 kts 165°
2026-05-09 01:05 40.05573 29.30786 30120 ft 470 kts 165°
2026-05-09 01:06 40.02493 29.32209 30346 ft 469 kts 164°
2026-05-09 01:06 39.99460 29.33643 30605 ft 469 kts 164°
2026-05-09 01:06 39.96395 29.35102 30846 ft 468 kts 164°
2026-05-09 01:06 39.93333 29.36555 31034 ft 469 kts 164°
2026-05-09 01:07 39.90266 29.38012 31213 ft 469 kts 163°
2026-05-09 01:07 39.87215 29.39592 31328 ft 473 kts 161°
2026-05-09 01:07 39.84228 29.41255 32039 ft 460 kts 161°
2026-05-09 01:07 39.81333 29.42899 32877 ft 447 kts 161°
2026-05-09 01:08 39.78528 29.44481 33671 ft 435 kts 161°
2026-05-09 01:08 39.75752 29.46025 33980 ft 434 kts 161°
2026-05-09 01:08 39.72956 29.47556 34052 ft 439 kts 161°
2026-05-09 01:09 39.67297 29.50650 34281 ft 441 kts 161°
2026-05-09 01:09 39.61605 29.53715 34391 ft 448 kts 163°
2026-05-09 01:09 39.58705 29.55176 34621 ft 446 kts 164°
2026-05-09 01:10 39.55800 29.56613 34901 ft 444 kts 164°
2026-05-09 01:10 39.52912 29.58035 35024 ft 445 kts 164°
2026-05-09 01:10 39.50010 29.59468 35110 ft 447 kts 164°
2026-05-09 01:11 39.44146 29.62373 35135 ft 456 kts 163°
2026-05-09 01:11 39.38170 29.65344 35149 ft 464 kts 163°
2026-05-09 01:12 39.32090 29.68368 35143 ft 473 kts 163°
2026-05-09 01:12 39.25941 29.71423 35153 ft 480 kts 163°
2026-05-09 01:13 39.19680 29.74528 35136 ft 483 kts 163°
2026-05-09 01:13 39.13388 29.77638 35138 ft 485 kts 163°
2026-05-09 01:14 39.07085 29.80753 35142 ft 486 kts 163°
2026-05-09 01:14 39.00766 29.83867 35134 ft 485 kts 164°
2026-05-09 01:15 38.94473 29.86963 35145 ft 483 kts 165°
2026-05-09 01:15 38.88237 29.90019 35151 ft 481 kts 165°
2026-05-09 01:16 38.81970 29.93017 35152 ft 481 kts 165°
2026-05-09 01:16 38.75688 29.95985 35168 ft 481 kts 165°
2026-05-09 01:17 38.66265 30.00444 35160 ft 480 kts 165°
2026-05-09 01:17 38.59991 30.03413 35153 ft 481 kts 165°
2026-05-09 01:18 38.53715 30.06377 35155 ft 480 kts 165°
2026-05-09 01:18 38.47493 30.09311 35169 ft 479 kts 167°
2026-05-09 01:19 38.41219 30.12261 35164 ft 480 kts 167°
2026-05-09 01:19 38.34946 30.15208 35162 ft 481 kts 167°
2026-05-09 01:20 38.28649 30.18107 35137 ft 480 kts 168°
2026-05-09 01:20 38.22349 30.20963 35161 ft 481 kts 168°
2026-05-09 01:21 38.16075 30.23849 35168 ft 482 kts 168°
2026-05-09 01:21 38.09761 30.26757 35164 ft 483 kts 168°
2026-05-09 01:22 38.03428 30.29661 35159 ft 484 kts 168°
2026-05-09 01:22 37.97085 30.32552 35164 ft 485 kts 168°
2026-05-09 01:23 37.90721 30.35427 35185 ft 485 kts 168°
2026-05-09 01:23 37.84361 30.38296 35183 ft 485 kts 168°
2026-05-09 01:24 37.78036 30.41148 35182 ft 484 kts 167°
2026-05-09 01:24 37.71669 30.44013 35176 ft 485 kts 167°
2026-05-09 01:25 37.65311 30.46870 35171 ft 485 kts 167°
2026-05-09 01:25 37.58941 30.49727 35175 ft 485 kts 167°
2026-05-09 01:26 37.52618 30.52559 35146 ft 485 kts 167°
2026-05-09 01:26 37.46264 30.55398 35151 ft 484 kts 167°
2026-05-09 01:27 37.39907 30.58234 35148 ft 484 kts 167°
2026-05-09 01:27 37.33590 30.61046 35116 ft 484 kts 167°
2026-05-09 01:28 37.27239 30.63869 35141 ft 483 kts 167°
2026-05-09 01:28 37.20878 30.66690 35126 ft 485 kts 167°
2026-05-09 01:29 37.14505 30.69513 35100 ft 485 kts 167°
2026-05-09 01:29 37.08167 30.72317 35099 ft 485 kts 167°
2026-05-09 01:30 37.01789 30.75132 35106 ft 485 kts 167°
2026-05-09 01:30 36.95404 30.77945 35102 ft 486 kts 167°
2026-05-09 01:31 36.88958 30.79673 35103 ft 468 kts 185°
2026-05-09 01:31 36.82468 30.79839 35092 ft 465 kts 186°
2026-05-09 01:32 36.75985 30.79989 35099 ft 467 kts 186°
2026-05-09 01:32 36.69510 30.80199 35095 ft 468 kts 186°
2026-05-09 01:33 36.62987 30.80436 35076 ft 469 kts 186°
2026-05-09 01:33 36.56462 30.80672 35085 ft 469 kts 186°
2026-05-09 01:34 36.49926 30.80904 35083 ft 470 kts 186°
2026-05-09 01:34 36.43373 30.81137 35084 ft 471 kts 186°
2026-05-09 01:35 36.36857 30.81358 35078 ft 471 kts 186°
2026-05-09 01:35 36.30306 30.81564 35085 ft 471 kts 186°
2026-05-09 01:36 36.23744 30.81772 35079 ft 471 kts 186°
2026-05-09 01:36 36.17199 30.81982 35075 ft 470 kts 186°
2026-05-09 01:37 36.10649 30.82192 35084 ft 470 kts 186°
2026-05-09 01:37 36.04118 30.83461 35090 ft 488 kts 165°
2026-05-09 01:38 36.01073 30.85282 35072 ft 497 kts 153°
2026-05-09 01:38 35.98271 30.87838 35106 ft 502 kts 146°
2026-05-09 01:38 35.92860 30.93307 35092 ft 503 kts 144°
2026-05-09 01:39 35.87440 30.98791 35080 ft 504 kts 145°
2026-05-09 01:39 35.81971 31.04217 35093 ft 505 kts 146°
2026-05-09 01:40 35.76464 31.09620 35088 ft 505 kts 146°
2026-05-09 01:40 35.70949 31.15012 35063 ft 506 kts 146°
2026-05-09 01:41 35.65474 31.20362 35087 ft 506 kts 146°
2026-05-09 01:41 35.59953 31.25749 35087 ft 505 kts 145°
2026-05-09 01:42 35.54440 31.31120 35089 ft 505 kts 145°
2026-05-09 01:42 35.48939 31.36470 35089 ft 504 kts 146°
2026-05-09 01:43 35.43480 31.41769 35086 ft 503 kts 146°
2026-05-09 01:43 35.37987 31.47090 35079 ft 501 kts 145°
2026-05-09 01:44 35.32514 31.52385 35085 ft 500 kts 145°
2026-05-09 01:44 35.27049 31.57661 35090 ft 499 kts 145°
2026-05-09 01:45 35.21618 31.62896 35091 ft 499 kts 145°
2026-05-09 01:45 35.16157 31.68149 35086 ft 498 kts 145°
2026-05-09 01:46 35.10735 31.73356 35070 ft 498 kts 145°
2026-05-09 01:46 35.05294 31.78573 35085 ft 497 kts 145°
2026-05-09 01:47 35.00732 31.82940 35089 ft 497 kts 145°
2026-05-09 01:47 34.95321 31.88110 35089 ft 497 kts 145°
2026-05-09 01:48 34.89876 31.93306 35088 ft 497 kts 145°
2026-05-09 01:48 34.84426 31.98496 35085 ft 497 kts 145°
2026-05-09 01:49 34.78970 32.03682 35069 ft 496 kts 145°
2026-05-09 01:49 34.73526 32.08851 35073 ft 496 kts 145°
2026-05-09 01:50 34.68097 32.13995 35073 ft 497 kts 145°
2026-05-09 01:50 34.62636 32.19161 35061 ft 497 kts 145°
2026-05-09 01:51 34.57203 32.24290 35060 ft 498 kts 145°
2026-05-09 01:51 34.51725 32.29455 35059 ft 498 kts 145°
2026-05-09 01:52 34.46248 32.34609 35059 ft 497 kts 145°
2026-05-09 01:52 34.40815 32.39713 35065 ft 497 kts 144°
2026-05-09 01:53 34.35333 32.44853 35065 ft 497 kts 144°
2026-05-09 01:53 34.29856 32.49981 35064 ft 497 kts 145°
2026-05-09 01:54 34.24415 32.55068 35064 ft 497 kts 145°
2026-05-09 01:54 34.18938 32.60177 35049 ft 496 kts 145°
2026-05-09 01:55 34.13463 32.65279 35061 ft 496 kts 145°
2026-05-09 01:55 34.07978 32.70351 35072 ft 496 kts 148°
2026-05-09 01:56 34.02194 32.74839 35080 ft 494 kts 152°
2026-05-09 01:56 33.96287 32.79105 35076 ft 494 kts 152°
2026-05-09 01:57 33.90438 32.83372 35069 ft 495 kts 152°
2026-05-09 01:57 33.84559 32.87723 35073 ft 496 kts 152°
2026-05-09 01:58 33.78690 32.92084 35068 ft 496 kts 152°
2026-05-09 01:58 33.72803 32.96450 35070 ft 497 kts 152°
2026-05-09 01:59 33.66913 33.00810 35070 ft 497 kts 152°
2026-05-09 01:59 33.61016 33.05165 35072 ft 497 kts 152°
2026-05-09 02:00 33.55159 33.09484 35077 ft 497 kts 152°
2026-05-09 02:00 33.49260 33.13828 35077 ft 497 kts 152°
2026-05-09 02:01 33.43365 33.18160 35073 ft 496 kts 153°
2026-05-09 02:01 33.37478 33.22479 35079 ft 496 kts 153°
2026-05-09 02:02 33.31602 33.26785 35060 ft 496 kts 153°
2026-05-09 02:02 33.25715 33.31092 35074 ft 496 kts 153°
2026-05-09 02:03 33.19830 33.35390 35072 ft 496 kts 153°
2026-05-09 02:03 33.13976 33.39658 35073 ft 496 kts 153°
2026-05-09 02:04 33.08080 33.43950 35073 ft 496 kts 153°
2026-05-09 02:04 33.02181 33.48239 35052 ft 496 kts 153°
2026-05-09 02:05 32.96282 33.52520 35065 ft 496 kts 153°
2026-05-09 02:05 32.90378 33.56799 35072 ft 497 kts 153°
2026-05-09 02:06 32.84502 33.61057 35072 ft 497 kts 152°
2026-05-09 02:07 32.76731 33.69412 35059 ft 506 kts 136°
2026-05-09 02:07 32.71913 33.75533 34935 ft 509 kts 136°
2026-05-09 02:07 32.69496 33.78553 34542 ft 509 kts 136°
2026-05-09 02:08 32.67055 33.81572 34122 ft 504 kts 136°
2026-05-09 02:08 32.64632 33.84552 33634 ft 500 kts 136°
2026-05-09 02:08 32.62220 33.87511 33171 ft 497 kts 137°
2026-05-09 02:08 32.59804 33.90475 32735 ft 502 kts 136°
2026-05-09 02:09 32.57351 33.93482 32292 ft 513 kts 136°
2026-05-09 02:09 32.54856 33.96549 31815 ft 518 kts 136°
2026-05-09 02:09 32.52387 33.99628 31333 ft 512 kts 136°
2026-05-09 02:09 32.49957 34.02679 30865 ft 506 kts 136°
2026-05-09 02:10 32.47551 34.05690 30414 ft 499 kts 136°
2026-05-09 02:10 32.45193 34.08614 29961 ft 498 kts 137°
2026-05-09 02:10 32.42581 34.11315 29449 ft 497 kts 147°
2026-05-09 02:10 32.39688 34.13530 28955 ft 493 kts 156°
2026-05-09 02:11 32.36667 34.15448 28465 ft 493 kts 150°
2026-05-09 02:11 32.33964 34.18008 27991 ft 506 kts 137°
2026-05-09 02:11 32.31719 34.21281 27515 ft 519 kts 124°
2026-05-09 02:11 32.30019 34.25057 27035 ft 521 kts 117°
2026-05-09 02:12 32.28466 34.28909 26521 ft 516 kts 116°
2026-05-09 02:12 32.26925 34.32731 26023 ft 511 kts 117°
2026-05-09 02:12 32.25380 34.36486 25542 ft 506 kts 117°
2026-05-09 02:12 32.23822 34.40192 25066 ft 501 kts 117°
2026-05-09 02:13 32.22259 34.43856 24570 ft 498 kts 118°
2026-05-09 02:13 32.20699 34.47493 24083 ft 494 kts 118°
2026-05-09 02:13 32.19176 34.51046 23610 ft 490 kts 118°
2026-05-09 02:13 32.17645 34.54632 23069 ft 486 kts 117°
2026-05-09 02:14 32.16351 34.58302 22568 ft 483 kts 109°
2026-05-09 02:14 32.15561 34.62143 22093 ft 479 kts 101°
2026-05-09 02:14 32.14977 34.65996 21633 ft 476 kts 100°
2026-05-09 02:14 32.14400 34.69832 21157 ft 473 kts 100°
2026-05-09 02:15 32.13810 34.73634 20697 ft 470 kts 100°
2026-05-09 02:15 32.13201 34.77413 20245 ft 467 kts 101°
2026-05-09 02:15 32.12583 34.81167 19795 ft 465 kts 101°
2026-05-09 02:15 32.11962 34.84909 19324 ft 463 kts 101°
2026-05-09 02:16 32.11343 34.88634 18866 ft 462 kts 101°
2026-05-09 02:16 32.10595 34.92315 18391 ft 460 kts 107°
2026-05-09 02:16 32.09599 34.95852 17892 ft 458 kts 109°
2026-05-09 02:16 32.08537 34.99369 17422 ft 453 kts 109°
2026-05-09 02:17 32.07484 35.02847 16962 ft 446 kts 109°
2026-05-09 02:17 32.06469 35.06271 16521 ft 439 kts 109°
2026-05-09 02:17 32.05486 35.09650 16082 ft 433 kts 108°
2026-05-09 02:17 32.04523 35.13002 15665 ft 430 kts 108°
2026-05-09 02:18 32.03565 35.16333 15238 ft 426 kts 109°
2026-05-09 02:18 32.02609 35.19637 14805 ft 424 kts 109°
2026-05-09 02:18 32.01634 35.22899 14375 ft 421 kts 109°
2026-05-09 02:18 32.00651 35.26154 13880 ft 421 kts 109°
2026-05-09 02:19 31.99697 35.29412 13327 ft 419 kts 109°
2026-05-09 02:19 31.98773 35.32645 12876 ft 415 kts 109°
2026-05-09 02:19 31.97875 35.35797 12440 ft 407 kts 109°
2026-05-09 02:19 31.96950 35.38929 12029 ft 400 kts 114°
2026-05-09 02:20 31.95638 35.41749 11552 ft 386 kts 127°
2026-05-09 02:20 31.93956 35.44141 10968 ft 372 kts 136°
2026-05-09 02:20 31.92146 35.46238 10532 ft 357 kts 137°
2026-05-09 02:20 31.90410 35.48261 10106 ft 345 kts 137°
2026-05-09 02:21 31.88744 35.50214 9758 ft 330 kts 137°
2026-05-09 02:21 31.87167 35.52070 9364 ft 319 kts 137°
2026-05-09 02:21 31.85628 35.53885 9023 ft 308 kts 136°
2026-05-09 02:21 31.84141 35.55638 8695 ft 297 kts 136°
2026-05-09 02:22 31.82695 35.57343 8407 ft 293 kts 136°
2026-05-09 02:22 31.81262 35.59033 8063 ft 289 kts 136°
2026-05-09 02:22 31.79855 35.60694 7750 ft 283 kts 136°
2026-05-09 02:22 31.78483 35.62312 7455 ft 275 kts 136°
2026-05-09 02:23 31.77151 35.63881 7199 ft 265 kts 136°
2026-05-09 02:23 31.75883 35.65377 7035 ft 251 kts 135°
2026-05-09 02:23 31.74677 35.66800 6831 ft 241 kts 135°
2026-05-09 02:23 31.73517 35.68167 6679 ft 232 kts 135°
2026-05-09 02:24 31.72400 35.69480 6570 ft 230 kts 135°
2026-05-09 02:24 31.71256 35.70826 6324 ft 233 kts 135°
2026-05-09 02:24 31.70115 35.72181 6080 ft 233 kts 132°
2026-05-09 02:24 31.69408 35.73843 5790 ft 227 kts 95°
2026-05-09 02:25 31.69618 35.75627 5622 ft 215 kts 78°
2026-05-09 02:25 31.69885 35.77301 5539 ft 205 kts 83°
2026-05-09 02:25 31.70101 35.78950 5346 ft 205 kts 82°
2026-05-09 02:25 31.70337 35.80599 5095 ft 202 kts 81°
2026-05-09 02:26 31.70565 35.82193 4843 ft 191 kts 81°
2026-05-09 02:26 31.70775 35.83669 4593 ft 180 kts 81°
2026-05-09 02:26 31.70979 35.85106 4378 ft 176 kts 81°
2026-05-09 02:26 31.71183 35.86532 4150 ft 178 kts 80°
2026-05-09 02:27 31.71385 35.87954 3919 ft 173 kts 79°
2026-05-09 02:27 31.71580 35.89304 3699 ft 160 kts 79°
2026-05-09 02:27 31.71764 35.90589 3500 ft 161 kts 79°
2026-05-09 02:27 31.71943 35.91859 3281 ft 156 kts 79°
2026-05-09 02:28 31.72107 35.93103 3079 ft 154 kts 79°
2026-05-09 02:28 31.72292 35.94326 2911 ft 150 kts 79°
2026-05-09 02:28 31.72467 35.95541 2721 ft 151 kts 80°
2026-05-09 02:28 31.72647 35.96755 2503 ft 150 kts 80°
2026-05-09 02:29 31.72816 35.97928 2415 ft 134 kts 80°
2026-05-09 02:29 31.72934 35.98737 2418 ft 75 kts 80°
2026-05-09 02:29 31.73004 35.99234 2417 ft 46 kts 84°
2026-05-09 02:29 31.72974 35.99458 2416 ft 21 kts 108°
2026-05-09 02:30 31.72923 35.99620 2415 ft 21 kts 110°
2026-05-09 02:30 31.72878 35.99744 2417 ft 15 kts 131°
2026-05-09 02:30 31.72796 35.99717 2417 ft 15 kts 254°
2026-05-09 02:30 31.72779 35.99600 2415 ft 14 kts 260°
2026-05-09 02:31 31.72763 35.99489 2417 ft 14 kts 260°
2026-05-09 02:31 31.72746 35.99383 2417 ft 13 kts 259°
2026-05-09 02:31 31.72731 35.99280 2417 ft 13 kts 261°
2026-05-09 02:31 31.72716 35.99173 2417 ft 14 kts 259°
2026-05-09 02:32 31.72699 35.99065 2417 ft 13 kts 261°
2026-05-09 02:32 31.72684 35.98961 2417 ft 13 kts 257°
2026-05-09 02:32 31.72617 35.98912 2417 ft 12 kts 177°
2026-05-09 02:32 31.72536 35.98941 2416 ft 12 kts 144°
2026-05-09 02:33 31.72471 35.98967 2417 ft 8 kts 169°
2026-05-09 02:33 31.72469 35.98968 2417 ft 0 kts 169°